Home   Weather   Washington Square   Past weeks
Flag for USA

Past Weather in Washington Square, Louisiana, USA — Yesterday and Last 2 Weeks

Now
78 °F

Partly sunny.


Feels Like: 80 °F
Forecast: 84 / 76 °F
Wind: 7 mph from South

Location: Lakefront Airport

Current Time: May 19, 2019 at 5:37:50 pm

Latest Report: May 19, 2019 at 4:53 pm


Visibility: 10 mi

Pressure: 29.94 "Hg

Humidity: 71%

Dew Point: 68 °F

Location of Washington SquareLocation

Past Weather in Washington Square — Graph

°F

Washington Square Temperature Yesterday

Maximum temperature yesterday: 86 °F (at 12:53 pm)
Minimum temperature yesterday: 74 °F (at 2:53 am)
Average temperature yesterday: 80 °F

High & Low Weather Summary for the Past Weeks

 TemperatureHumidityPressure
High86 °F (May 9, 11:53 am)97% (May 12, 4:10 am)30.09 "Hg (May 12, 4:10 am)
Low68 °F (May 12, 4:58 am)39% (May 14, 11:53 am)29.74 "Hg (May 4, 5:53 pm)
Average76 °F75%29.92 "Hg
* Reported May 4 3:04 pm — May 19 3:53 pm, Washington Square. Weather by CustomWeather, © 2019

Note: Actual official high and low records may vary slightly from our data, if they occured in-between our weather recording intervals... More about our weather records

Advertising

Washington Square Weather History for the Previous 24 Hours

Scroll right to see more
 ConditionsComfort  
Time TempWeatherWind HumidityBarometerVisibility
3:53 pm
Sun, May 19
77 °FSunny.9 mph77%29.95 "Hg10 mi
2:53 pm75 °FScattered clouds.10 mph85%29.97 "Hg10 mi
1:53 pm70 °FPassing clouds.8 mph93%29.99 "Hg10 mi
1:31 pm70 °FLight rain. Cloudy.6 mph90%30.02 "Hg9 mi
1:16 pm70 °FThundershowers. Fog.3 mph90%30.02 "Hg6 mi
12:53 pm70 °FRain. Fog.5 mph87%29.99 "Hg4 mi
12:40 pm70 °FStrong thunderstorms. Fog.12 mph87%30.00 "Hg3 mi
12:12 pm71 °FThundershowers. Fog.8 mph87%30.05 "Hg2 mi
12:04 pm71 °FStrong thunderstorms. Fog.9 mph87%30.05 "Hg2 mi
11:33 am70 °FThunderstorms. Fog.7 mph93%30.04 "Hg2 mi
11:15 am69 °FStrong thunderstorms. Fog.12 mph93%30.05 "Hg1 mi
10:53 am70 °FStrong thunderstorms. Fog.33 mph90%30.02 "Hg0 mi
10:38 am69 °FStrong thunderstorms. Fog.23 mph90%30.05 "Hg2 mi
10:10 am79 °FThunderstorms. Cloudy.5 mph84%30.00 "Hg7 mi
9:53 am79 °FBroken clouds.No wind84%29.98 "Hg7 mi
8:53 am78 °FPartly sunny.8 mph87%29.96 "Hg7 mi
7:53 am78 °FPartly sunny.12 mph84%29.92 "Hg7 mi
6:53 am78 °FBroken clouds.12 mph84%29.90 "Hg7 mi
5:53 am78 °FClear.12 mph84%29.89 "Hg8 mi
5:31 am78 °FPassing clouds.10 mph84%29.90 "Hg8 mi
5:10 am78 °FPassing clouds.12 mph84%29.91 "Hg9 mi
4:53 am78 °FPartly cloudy.14 mph84%29.88 "Hg9 mi
3:53 am78 °FClear.16 mph84%29.87 "Hg9 mi
2:53 am78 °FPassing clouds.15 mph84%29.87 "Hg9 mi
1:53 am78 °FPassing clouds.14 mph84%29.89 "Hg9 mi
1:08 am78 °FPassing clouds.15 mph84%29.89 "Hg10 mi
12:11 am79 °FPassing clouds.16 mph82%29.92 "Hg10 mi
11:53 pm
Sat, May 18
79 °FPassing clouds.17 mph82%29.89 "Hg10 mi
11:00 pm79 °FPassing clouds.14 mph82%29.92 "Hg10 mi
9:53 pm79 °FPartly cloudy.16 mph82%29.89 "Hg10 mi
8:53 pm79 °FPartly cloudy.14 mph82%29.88 "Hg10 mi
8:08 pm80 °FPartly cloudy.16 mph79%29.89 "Hg10 mi
7:53 pm80 °FPartly cloudy.17 mph79%29.86 "Hg10 mi
6:53 pm81 °FPartly sunny.18 mph74%29.85 "Hg10 mi
6:20 pm81 °FPartly sunny.15 mph77%29.89 "Hg10 mi
5:53 pm82 °FLight rain. Broken clouds.18 mph72%29.87 "Hg6 mi
Weather by CustomWeather, © 2019

See weather overview